[[{"header":{"parameterUnit":"m.s-1","parameterCategory":1,"la1":30.2991,"la2":30.254,"lo1":-89.0895,"lo2":-89.0444,"dx":0.0017,"dy":0.0017,"nx":28,"ny":28,"refTime":"2022-11-16T15:00:00:Z","depth":0,"parameterNumber":2,"parameterNumberName":"U-component_of_WINDS"},"data":[0,0,0,0,0,0,0,0,0,0,0,0,0,0,0,0,0,0,0,0,0,0,0,0,0,0,0,0,0,0,0,0,0,0,0,0,0,0,0,0,0,0,0,0,0,0,0,0,0,0,0,0,0,0,0,0,0,0,-0.2023,-0.2023,0,-0.2062,-0.2062,-0.2063,-0.2047,-0.2046,-0.2045,-0.2045,-0.2087,-0.2089,-0.2091,0,0,0,0,0,0,0,0,0,0,0,0,0,-0.1937,-0.1939,-0.2023,-0.2023,-0.2024,-0.2062,-0.2062,-0.2063,-0.2047,-0.2046,-0.2045,-0.2044,-0.2086,-0.2088,-0.2091,0,0,0,0,0,0,0,0,0,0,0,0,0,-0.1975,-0.194,-0.2023,-0.2021,-0.2021,-0.2062,-0.2062,-0.2063,-0.2048,-0.2046,-0.2045,-0.2044,-0.2085,-0.2088,-0.2091,-0.2137,0,0,-0.21,-0.2101,0,0,0,0,0,0,0,0,-0.1973,-0.1978,-0.2021,-0.2021,-0.2021,-0.2048,-0.2047,-0.2088,-0.2048,-0.2038,-0.2045,-0.2043,-0.2075,-0.2079,-0.2089,-0.2139,-0.2141,-0.21,-0.2102,-0.2103,-0.2104,0,0,0,0,0,0,0,-0.1971,-0.1977,-0.2038,-0.2021,-0.2022,-0.2018,-0.2022,-0.2055,-0.2064,-0.2038,-0.2037,-0.2042,-0.2075,-0.2086,-0.209,-0.2141,-0.21,-0.2103,-0.2105,-0.2106,-0.223,-0.2232,0,0,0,0,0,0,-0.1968,-0.1975,-0.2037,-0.204,-0.1993,-0.2021,-0.2025,-0.2041,-0.2063,-0.2065,-0.2043,-0.2041,-0.2082,-0.2087,-0.2092,-0.2147,-0.2103,-0.2106,-0.2108,-0.2229,-0.223,-0.2232,0,0,0,0,0,0,-0.1966,-0.1973,-0.2036,-0.2007,-0.2014,-0.2024,-0.2042,-0.2043,-0.2054,-0.2067,-0.2069,-0.2053,-0.2081,-0.2087,-0.2125,-0.2148,-0.2108,-0.211,-0.2227,-0.2229,-0.2231,-0.2258,0,0,0,0,0,0,-0.1963,-0.1973,-0.199,-0.2007,-0.2016,-0.2069,-0.2043,-0.2044,-0.2059,-0.2056,-0.2077,-0.2079,-0.2081,-0.2121,-0.2128,-0.2152,-0.2113,-0.2225,-0.2228,-0.2231,-0.2255,-0.2261,-0.2266,0,0,0,0,0,-0.196,-0.1996,-0.1991,-0.1998,-0.2038,-0.207,-0.2075,-0.2076,-0.2061,-0.2078,-0.2086,-0.2078,-0.2144,-0.2125,-0.2133,-0.2158,-0.2223,-0.2227,-0.223,-0.2253,-0.226,-0.2266,0,0,0,0,0,0,-0.1982,-0.1999,-0.1993,-0.2035,-0.2051,-0.2067,-0.209,-0.2083,-0.2104,-0.2102,-0.2102,-0.2107,-0.2146,-0.2155,-0.2134,-0.2203,-0.2182,-0.2187,-0.2196,-0.2203,-0.2208,-0.2205,-0.2115,0,0,0,0,0,-0.1992,-0.2016,-0.2029,-0.2065,-0.2074,-0.208,-0.2094,-0.2093,-0.211,-0.2117,-0.2128,-0.2146,-0.217,-0.2187,-0.221,-0.2256,-0.226,-0.2276,-0.2282,-0.2286,-0.2291,-0.2316,-0.2324,-0.2243,-0.2243,-0.2243,0,0,-0.2013,-0.2024,-0.204,-0.207,-0.2082,-0.2108,-0.2086,-0.2114,-0.2134,-0.2122,-0.2159,-0.2167,-0.2186,-0.2228,-0.2248,-0.2237,-0.2314,-0.229,-0.2294,-0.2296,-0.232,-0.2328,-0.2335,-0.2246,-0.2245,-0.2245,0,0,-0.2064,-0.2074,-0.2106,-0.2118,-0.2137,-0.2141,-0.2148,-0.2165,-0.217,-0.2206,-0.2198,-0.2221,-0.2264,-0.2278,-0.2291,-0.2345,-0.2339,-0.2353,-0.2382,-0.2406,-0.2412,-0.2418,-0.2439,-0.2446,-0.2358,-0.2358,-0.2358,0,-0.2087,-0.2125,-0.2123,-0.2152,-0.2166,-0.2155,-0.2187,-0.22,-0.2225,-0.2235,-0.2223,-0.2276,-0.2288,-0.2333,-0.2347,-0.2357,-0.2366,-0.2352,-0.2411,-0.2417,-0.2422,-0.2442,-0.245,-0.2359,-0.2359,-0.2359,-0.2359,0,-0.2153,-0.218,-0.2203,-0.2227,-0.2243,-0.2274,-0.2277,-0.2294,-0.2291,-0.2296,-0.2334,-0.2348,-0.2374,-0.2384,-0.2382,-0.243,-0.2423,-0.2411,-0.239,-0.2432,-0.245,-0.2458,-0.2362,-0.2361,-0.2361,-0.236,0,0,-0.2221,-0.2243,-0.2251,-0.2262,-0.2281,-0.2302,-0.2332,-0.2356,-0.2371,-0.2388,-0.2414,-0.245,-0.2439,-0.2453,-0.2452,-0.2474,-0.2517,-0.2459,-0.246,-0.2471,-0.2571,-0.2581,-0.259,-0.2512,-0.2513,-0.2514,-0.257,0,-0.2274,-0.2326,-0.2325,-0.2374,-0.2398,-0.2387,-0.2413,-0.2428,-0.2434,-0.2456,-0.2462,-0.2487,-0.247,-0.2479,-0.25,-0.2508,-0.2538,-0.2503,-0.2537,-0.2538,-0.2534,-0.2599,-0.261,-0.2661,-0.2577,-0.2578,-0.2579,0,-0.2344,-0.2363,-0.2414,-0.2429,-0.2439,-0.2462,-0.2485,-0.2505,-0.2522,-0.2524,-0.254,-0.2536,-0.2566,-0.2543,-0.2586,-0.2563,-0.2576,-0.2582,-0.2584,-0.2588,-0.2562,-0.2607,-0.2678,-0.2686,-0.259,-0.2589,-0.2588,0,-0.2389,-0.2428,-0.2463,-0.2472,-0.249,-0.2507,-0.2516,-0.2531,-0.2545,-0.2565,-0.2575,-0.2598,-0.2611,-0.2629,-0.2631,-0.2613,-0.2674,-0.2651,-0.2678,-0.2678,-0.2693,-0.2692,-0.2769,-0.2699,-0.2699,-0.2699,-0.2699,0,-0.245,-0.2482,-0.2484,-0.2506,-0.2541,-0.2539,-0.2574,-0.2581,-0.2594,-0.2618,-0.261,-0.2632,-0.2633,-0.2656,-0.2657,-0.2693,-0.2699,-0.2702,-0.2703,-0.2704,-0.2704,-0.2714,-0.2711,-0.2701,-0.2701,-0.27,-0.27,0,-0.2508,-0.251,-0.2548,-0.2562,-0.2566,-0.2591,-0.2603,-0.2624,-0.2628,-0.2658,-0.2665,-0.2672,-0.2698,-0.2701,-0.2733,-0.2734,-0.2777,-0.2773,-0.2772,-0.2771,-0.2799,-0.2797,-0.2886,-0.2898,-0.2819,-0.282,-0.2821,0,-0.2547,-0.2571,-0.2587,-0.2602,-0.2611,-0.2635,-0.2649,-0.2648,-0.2664,-0.2684,-0.2703,-0.2728,-0.2749,-0.2792,-0.28,-0.2823,-0.2821,-0.285,-0.2824,-0.2825,-0.2823,-0.2822,-0.2825,-0.2856,-0.2857,-0.2857,-0.2858,0,-0.2617,-0.2617,-0.2638,-0.2659,-0.2677,-0.2694,-0.271,-0.2723,-0.2724,-0.2742,-0.2768,-0.2784,-0.2815,-0.2841,-0.2864,-0.2873,-0.2866,-0.2866,-0.2873,-0.2876,-0.2875,-0.2877,-0.2787,-0.2864,-0.2863,-0.2863,-0.2863,-0.2862,-0.2668,-0.2689,-0.2703,-0.2727,-0.2738,-0.2753,-0.2774,-0.278,-0.2802,-0.2827,-0.2824,-0.2854,-0.2869,-0.29,-0.291,-0.2934,-0.2924,-0.2935,-0.2938,-0.2941,-0.2945,-0.2869,-0.2938,-0.2938,-0.2937,-0.2937,-0.2937,0,-0.2738,-0.2746,-0.2768,-0.279,-0.2809,-0.2799,-0.2816,-0.2833,-0.2859,-0.2873,-0.2893,-0.2924,-0.2948,-0.2958,-0.2982,-0.2999,-0.2996,-0.3005,-0.3005,-0.3007,-0.2951,-0.2943,-0.3007,-0.3007,-0.3007,-0.3007,-0.3007,-0.3007,-0.2777,-0.2812,-0.2813,-0.2854,-0.2862,-0.2891,-0.2901,-0.2915,-0.2927,-0.2961,-0.2981,-0.2986,-0.2999,-0.3024,-0.3046,-0.3048,-0.3058,-0.3069,-0.307,-0.3018,-0.3011,-0.3004,-0.2996,-0.3071,-0.3071,-0.3124,-0.3124,-0.3125]},{"header":{"parameterUnit":"m.s-1","parameterCategory":1,"la1":30.2991,"la2":30.254,"lo1":-89.0895,"lo2":-89.0444,"dx":0.0017,"dy":0.0017,"nx":28,"ny":28,"refTime":"2022-11-16T15:00:00:Z","depth":0,"parameterNumber":3,"parameterNumberName":"V-component_of_WINDS"},"data":[0,0,0,0,0,0,0,0,0,0,0,0,0,0,0,0,0,0,0,0,0,0,0,0,0,0,0,0,0,0,0,0,0,0,0,0,0,0,0,0,0,0,0,0,0,0,0,0,0,0,0,0,0,0,0,0,0,0,-5.2069,-5.2069,0,-5.2133,-5.2134,-5.2135,-5.2077,-5.2074,-5.2072,-5.207,-5.2132,-5.2136,-5.214,0,0,0,0,0,0,0,0,0,0,0,0,0,-5.1891,-5.1895,-5.2069,-5.2069,-5.207,-5.2133,-5.2134,-5.2135,-5.2077,-5.2074,-5.2072,-5.2069,-5.2131,-5.2136,-5.214,0,0,0,0,0,0,0,0,0,0,0,0,0,-5.1963,-5.1896,-5.2068,-5.2049,-5.2048,-5.2133,-5.2134,-5.2135,-5.2078,-5.2074,-5.2071,-5.2067,-5.213,-5.2135,-5.2141,-5.2247,0,0,-5.2159,-5.2161,0,0,0,0,0,0,0,0,-5.1959,-5.197,-5.2051,-5.2051,-5.205,-5.2094,-5.2095,-5.2173,-5.2079,-5.2066,-5.207,-5.2066,-5.2122,-5.2128,-5.2148,-5.225,-5.2253,-5.2159,-5.2163,-5.2165,-5.2167,0,0,0,0,0,0,0,-5.1955,-5.1967,-5.2094,-5.2052,-5.2051,-5.2036,-5.2042,-5.2109,-5.2113,-5.2067,-5.2063,-5.2072,-5.2121,-5.2143,-5.2149,-5.2254,-5.2159,-5.2164,-5.2168,-5.217,-5.2447,-5.2451,0,0,0,0,0,0,-5.1952,-5.1963,-5.2092,-5.2096,-5.1995,-5.2042,-5.2049,-5.2083,-5.2112,-5.2113,-5.2075,-5.2069,-5.2134,-5.2142,-5.2151,-5.2278,-5.2165,-5.217,-5.2174,-5.2443,-5.2448,-5.2452,0,0,0,0,0,0,-5.1949,-5.1964,-5.2089,-5.2029,-5.2043,-5.2049,-5.2087,-5.2086,-5.2108,-5.2118,-5.2118,-5.2097,-5.2132,-5.2143,-5.2224,-5.228,-5.2173,-5.2178,-5.2439,-5.2445,-5.245,-5.2534,0,0,0,0,0,0,-5.1944,-5.1963,-5.2004,-5.203,-5.2047,-5.2163,-5.2091,-5.209,-5.2118,-5.2111,-5.2138,-5.2139,-5.213,-5.2216,-5.223,-5.2286,-5.2183,-5.2434,-5.2442,-5.2448,-5.2526,-5.2542,-5.2555,0,0,0,0,0,-5.1938,-5.2024,-5.2007,-5.2023,-5.2099,-5.2166,-5.2176,-5.2164,-5.2123,-5.2164,-5.2171,-5.2139,-5.2271,-5.2225,-5.224,-5.2298,-5.243,-5.2439,-5.2448,-5.2519,-5.2538,-5.2555,0,0,0,0,0,0,-5.2003,-5.2027,-5.2008,-5.2106,-5.2135,-5.2156,-5.2208,-5.2185,-5.2225,-5.2216,-5.2199,-5.2205,-5.2292,-5.2303,-5.2251,-5.2403,-5.2344,-5.2356,-5.2393,-5.2411,-5.2426,-5.2421,-5.2188,0,0,0,0,0,-5.2029,-5.2084,-5.2101,-5.2185,-5.2201,-5.2202,-5.2231,-5.222,-5.2248,-5.226,-5.2272,-5.23,-5.2348,-5.238,-5.2425,-5.2527,-5.2532,-5.2575,-5.2589,-5.2601,-5.2612,-5.2668,-5.2687,-5.2481,-5.2481,-5.2481,0,0,-5.2083,-5.2103,-5.2138,-5.2199,-5.222,-5.2276,-5.2213,-5.2274,-5.2315,-5.2268,-5.2347,-5.2357,-5.2387,-5.248,-5.2521,-5.2492,-5.267,-5.2612,-5.2622,-5.2626,-5.2679,-5.2698,-5.2715,-5.2487,-5.2486,-5.2485,0,0,-5.2211,-5.2231,-5.2304,-5.2327,-5.236,-5.2361,-5.2378,-5.2404,-5.241,-5.2488,-5.2455,-5.2503,-5.2586,-5.2609,-5.2631,-5.2769,-5.2741,-5.2783,-5.2859,-5.2914,-5.293,-5.2944,-5.2994,-5.3012,-5.2794,-5.2794,-5.2795,0,-5.2273,-5.2357,-5.2344,-5.2409,-5.2437,-5.2399,-5.2473,-5.2495,-5.2541,-5.256,-5.2527,-5.2631,-5.2649,-5.2747,-5.278,-5.28,-5.2819,-5.278,-5.2929,-5.2943,-5.2956,-5.3003,-5.3022,-5.2799,-5.2799,-5.2798,-5.2798,0,-5.2433,-5.2491,-5.2546,-5.2593,-5.2627,-5.2696,-5.2693,-5.2728,-5.2715,-5.2718,-5.2799,-5.2819,-5.2867,-5.2889,-5.2876,-5.2986,-5.2967,-5.2932,-5.2872,-5.2981,-5.3025,-5.3043,-5.2807,-5.2805,-5.2803,-5.2802,0,0,-5.2603,-5.2643,-5.2664,-5.2685,-5.272,-5.2764,-5.2831,-5.288,-5.2911,-5.2944,-5.2999,-5.3071,-5.3039,-5.3065,-5.3053,-5.3101,-5.3209,-5.306,-5.306,-5.3087,-5.3333,-5.336,-5.3381,-5.3191,-5.3194,-5.3197,-5.3331,0,-5.2732,-5.285,-5.2841,-5.2952,-5.3006,-5.2972,-5.303,-5.3057,-5.3062,-5.3108,-5.3113,-5.3165,-5.3118,-5.3134,-5.318,-5.3187,-5.3258,-5.3177,-5.3242,-5.3244,-5.3237,-5.3404,-5.3432,-5.3558,-5.3348,-5.3351,-5.3353,0,-5.2899,-5.294,-5.3057,-5.3084,-5.3106,-5.3159,-5.3204,-5.3248,-5.3278,-5.3278,-5.3308,-5.3289,-5.3355,-5.3294,-5.3385,-5.333,-5.3356,-5.3363,-5.3368,-5.3374,-5.3306,-5.3415,-5.3597,-5.3617,-5.3379,-5.3377,-5.3375,0,-5.3012,-5.3096,-5.3177,-5.3197,-5.323,-5.3268,-5.3284,-5.331,-5.3341,-5.3379,-5.3399,-5.3444,-5.3469,-5.3504,-5.3497,-5.3453,-5.3591,-5.3528,-5.3593,-5.3593,-5.3624,-5.3622,-5.3814,-5.364,-5.3639,-5.3639,-5.3638,0,-5.3158,-5.3231,-5.3229,-5.3279,-5.336,-5.3349,-5.3429,-5.3439,-5.3464,-5.3514,-5.3486,-5.3534,-5.3522,-5.357,-5.3564,-5.3641,-5.3652,-5.3654,-5.3652,-5.3658,-5.3658,-5.3675,-5.3666,-5.3644,-5.3643,-5.3642,-5.3641,0,-5.3299,-5.3301,-5.3387,-5.3413,-5.3421,-5.3479,-5.35,-5.3547,-5.3551,-5.3616,-5.363,-5.3635,-5.369,-5.3686,-5.3747,-5.3743,-5.3839,-5.3826,-5.383,-5.3827,-5.3892,-5.3887,-5.4102,-5.413,-5.3937,-5.3939,-5.394,0,-5.3392,-5.3448,-5.348,-5.3514,-5.3532,-5.3585,-5.3617,-5.3607,-5.3641,-5.368,-5.3722,-5.3774,-5.3816,-5.3904,-5.3913,-5.3959,-5.3948,-5.402,-5.3954,-5.3958,-5.395,-5.3947,-5.3953,-5.4033,-5.4035,-5.4037,-5.4039,0,-5.3558,-5.3557,-5.3604,-5.3652,-5.3691,-5.3728,-5.3762,-5.379,-5.3784,-5.3823,-5.388,-5.3912,-5.3975,-5.4028,-5.4072,-5.4087,-5.4062,-5.4059,-5.4077,-5.4083,-5.4083,-5.4085,-5.3866,-5.4054,-5.4053,-5.4052,-5.4051,-5.405,-5.3679,-5.3727,-5.3758,-5.3812,-5.3837,-5.3869,-5.3915,-5.3925,-5.3973,-5.4025,-5.4016,-5.4079,-5.4107,-5.4165,-5.4184,-5.4233,-5.4207,-5.4232,-5.4239,-5.4245,-5.4253,-5.4075,-5.4241,-5.424,-5.424,-5.424,-5.4239,0,-5.3844,-5.3863,-5.3912,-5.3962,-5.4004,-5.3978,-5.4015,-5.4051,-5.4108,-5.4138,-5.418,-5.4245,-5.4296,-5.4308,-5.4357,-5.4394,-5.4384,-5.4407,-5.4404,-5.4408,-5.4273,-5.4254,-5.4414,-5.4414,-5.4414,-5.4414,-5.4414,-5.4414,-5.3935,-5.4017,-5.4019,-5.4112,-5.4129,-5.4193,-5.4216,-5.4245,-5.4269,-5.4344,-5.4387,-5.4395,-5.4418,-5.4468,-5.4513,-5.4516,-5.4535,-5.4563,-5.4561,-5.4435,-5.4418,-5.4401,-5.4383,-5.4567,-5.4568,-5.4692,-5.4693,-5.4694]}]]